Time,TemperatureF,DewpointF,PressureIn,WindDirection,WindDirectionDegrees,WindSpeedMPH,WindSpeedGustMPH,Humidity,HourlyPrecipIn,Conditions,Clouds,dailyrainin,SolarRadiationWatts/m^2,SoftwareType,DateUTC
2013-04-24 00:00:00,53.2,47.2,30.19,SE,140,3.0,5.0,80,0.00,,---,0.00,0.00,VWS V14.01,2013-04-24 04:00:00,
2013-04-24 00:01:00,53.2,46.9,30.19,SSE,163,0.0,5.0,79,0.00,,---,0.00,0.00,VWS V14.01,2013-04-24 04:01:00,
2013-04-24 00:02:00,53.2,47.2,30.19,SSE,163,0.0,5.0,80,0.00,,---,0.00,0.00,VWS V14.01,2013-04-24 04:02:00,
2013-04-24 00:30:00,52.5,47.2,30.18,SE,141,0.0,5.0,82,0.00,,---,0.00,0.00,VWS V14.01,2013-04-24 04:30:00,
2013-04-24 00:46:00,52.2,46.9,30.18,SSE,155,0.0,2.0,82,0.00,,---,0.00,0.00,VWS V14.01,2013-04-24 04:46:00,
2013-04-24 00:51:00,52.1,47.1,30.18,SE,136,0.0,3.0,83,0.00,,---,0.00,0.00,VWS V14.01,2013-04-24 04:51:00,
2013-04-24 00:56:00,52.0,47.0,30.18,SE,136,0.0,3.0,83,0.00,,---,0.00,0.00,VWS V14.01,2013-04-24 04:56:00,
2013-04-24 01:00:00,51.9,46.9,30.18,SE,136,0.0,3.0,83,0.00,,---,0.00,0.00,VWS V14.01,2013-04-24 05:00:00,
2013-04-24 01:02:00,51.9,46.9,30.18,SE,136,0.0,3.0,83,0.00,,---,0.00,0.00,VWS V14.01,2013-04-24 05:02:00,
2013-04-24 01:07:00,51.8,47.1,30.18,SE,126,0.0,3.0,84,0.00,,---,0.00,0.00,VWS V14.01,2013-04-24 05:07:00,
2013-04-24 01:12:00,51.7,47.0,30.18,SSE,148,0.0,3.0,84,0.00,,---,0.00,0.00,VWS V14.01,2013-04-24 05:12:00,
2013-04-24 01:17:00,51.6,46.9,30.17,South,180,0.0,3.0,84,0.00,,---,0.00,0.00,VWS V14.01,2013-04-24 05:17:00,
2013-04-24 01:22:00,51.5,47.2,30.17,South,180,0.0,3.0,85,0.00,,---,0.00,0.00,VWS V14.01,2013-04-24 05:22:00,
2013-04-24 01:27:00,51.4,47.0,30.17,South,180,0.0,3.0,85,0.00,,---,0.00,0.00,VWS V14.01,2013-04-24 05:27:00,
2013-04-24 01:30:00,51.3,47.0,30.17,South,177,0.0,3.0,85,0.00,,---,0.00,0.00,VWS V14.01,2013-04-24 05:30:00,
2013-04-24 01:32:00,51.3,47.0,30.17,South,177,0.0,3.0,85,0.00,,---,0.00,0.00,VWS V14.01,2013-04-24 05:32:00,
2013-04-24 01:37:00,51.2,46.8,30.17,South,178,1.0,1.0,85,0.00,,---,0.00,0.00,VWS V14.01,2013-04-24 05:37:00,
2013-04-24 01:42:00,51.2,46.8,30.17,SSE,155,0.0,3.0,85,0.00,,---,0.00,0.00,VWS V14.01,2013-04-24 05:42:00,
2013-04-24 01:48:00,51.2,46.8,30.17,SSE,156,0.0,3.0,85,0.00,,---,0.00,0.00,VWS V14.01,2013-04-24 05:48:00,
2013-04-24 01:53:00,51.1,47.1,30.17,SE,145,0.0,5.0,86,0.00,,---,0.00,0.00,VWS V14.01,2013-04-24 05:53:00,
2013-04-24 01:58:00,51.1,47.1,30.17,SE,127,0.0,5.0,86,0.00,,---,0.00,0.00,VWS V14.01,2013-04-24 05:58:00,
2013-04-24 02:00:00,51.1,47.1,30.16,SE,142,0.0,5.0,86,0.00,,---,0.00,0.00,VWS V14.01,2013-04-24 06:00:00,
2013-04-24 02:03:00,51.1,47.1,30.16,SE,142,0.0,0.0,86,0.00,,---,0.00,0.00,VWS V14.01,2013-04-24 06:03:00,
2013-04-24 02:08:00,51.2,47.2,30.16,SSE,156,0.0,3.0,86,0.00,,---,0.00,0.00,VWS V14.01,2013-04-24 06:08:00,
2013-04-24 02:13:00,51.2,47.2,30.16,SSE,147,2.0,5.0,86,0.00,,---,0.00,0.00,VWS V14.01,2013-04-24 06:13:00,
2013-04-24 02:18:00,51.2,47.2,30.15,SE,129,0.0,5.0,86,0.00,,---,0.00,0.00,VWS V14.01,2013-04-24 06:18:00,
2013-04-24 02:23:00,51.2,47.2,30.15,SSE,152,0.0,5.0,86,0.00,,---,0.00,0.00,VWS V14.01,2013-04-24 06:23:00,
2013-04-24 02:28:00,51.2,47.2,30.15,SSE,158,0.0,5.0,86,0.00,,---,0.00,0.00,VWS V14.01,2013-04-24 06:28:00,
2013-04-24 02:30:00,51.2,47.2,30.15,SE,135,0.0,5.0,86,0.00,,---,0.00,0.00,VWS V14.01,2013-04-24 06:30:00,
2013-04-24 02:33:00,51.1,47.1,30.15,ESE,121,0.0,1.0,86,0.00,,---,0.00,0.00,VWS V14.01,2013-04-24 06:33:00,
2013-04-24 02:38:00,51.1,47.1,30.15,SE,137,0.0,2.0,86,0.00,,---,0.00,0.00,VWS V14.01,2013-04-24 06:38:00,
2013-04-24 02:44:00,51.0,47.0,30.15,SE,136,0.0,2.0,86,0.00,,---,0.00,0.00,VWS V14.01,2013-04-24 06:44:00,
2013-04-24 02:49:00,51.0,47.0,30.14,South,169,0.0,3.0,86,0.00,,---,0.00,0.00,VWS V14.01,2013-04-24 06:49:00,
2013-04-24 02:54:00,50.9,46.9,30.15,SE,139,1.0,3.0,86,0.00,,---,0.00,0.00,VWS V14.01,2013-04-24 06:54:00,
2013-04-24 02:59:00,50.9,47.2,30.14,South,188,1.0,5.0,87,0.00,,---,0.00,0.00,VWS V14.01,2013-04-24 06:59:00,
2013-04-24 03:00:00,50.8,47.1,30.14,South,188,0.0,5.0,87,0.00,,---,0.00,0.00,VWS V14.01,2013-04-24 07:00:00,
2013-04-24 03:04:00,50.8,47.1,30.14,South,186,3.0,3.0,87,0.00,,---,0.00,0.00,VWS V14.01,2013-04-24 07:04:00,
2013-04-24 03:09:00,50.8,47.1,30.14,South,182,0.0,4.0,87,0.00,,---,0.00,0.00,VWS V14.01,2013-04-24 07:09:00,
2013-04-24 03:14:00,50.8,47.1,30.14,South,182,0.0,4.0,87,0.00,,---,0.00,0.00,VWS V14.01,2013-04-24 07:14:00,
2013-04-24 03:19:00,50.7,47.0,30.14,SSE,159,0.0,4.0,87,0.00,,---,0.00,0.00,VWS V14.01,2013-04-24 07:19:00,
2013-04-24 03:24:00,50.7,47.0,30.14,SSE,157,0.0,5.0,87,0.00,,---,0.00,0.00,VWS V14.01,2013-04-24 07:24:00,
2013-04-24 03:30:00,50.6,46.9,30.14,SSE,163,0.0,5.0,87,0.00,,---,0.00,0.00,VWS V14.01,2013-04-24 07:30:00,
2013-04-24 03:35:00,50.6,46.9,30.14,SSE,163,0.0,0.0,87,0.00,,---,0.00,0.00,VWS V14.01,2013-04-24 07:35:00,
2013-04-24 03:40:00,50.5,46.8,30.14,SSE,166,4.0,4.0,87,0.00,,---,0.00,0.00,VWS V14.01,2013-04-24 07:40:00,
2013-04-24 03:45:00,50.5,47.1,30.14,SSE,167,0.0,6.0,88,0.00,,---,0.00,0.00,VWS V14.01,2013-04-24 07:45:00,
2013-04-24 03:50:00,50.5,47.1,30.14,South,180,2.0,6.0,88,0.00,,---,0.00,0.00,VWS V14.01,2013-04-24 07:50:00,
2013-04-24 03:55:00,50.5,47.1,30.14,South,169,0.0,6.0,88,0.00,,---,0.00,0.00,VWS V14.01,2013-04-24 07:55:00,
2013-04-24 04:00:00,50.4,47.0,30.14,South,180,0.0,6.0,88,0.00,,---,0.00,0.00,VWS V14.01,2013-04-24 08:00:00,
2013-04-24 04:05:00,50.4,47.0,30.14,South,176,0.0,5.0,88,0.00,,---,0.00,0.00,VWS V14.01,2013-04-24 08:05:00,
2013-04-24 04:11:00,50.4,46.7,30.14,SSE,157,2.0,5.0,87,0.00,,---,0.00,0.00,VWS V14.01,2013-04-24 08:11:00,
2013-04-24 04:16:00,50.3,46.6,30.13,South,182,0.0,5.0,87,0.00,,---,0.00,0.00,VWS V14.01,2013-04-24 08:16:00,
2013-04-24 04:21:00,50.2,46.5,30.13,South,182,0.0,5.0,87,0.00,,---,0.00,0.00,VWS V14.01,2013-04-24 08:21:00,
2013-04-24 04:26:00,50.0,46.3,30.13,South,182,0.0,5.0,87,0.00,,---,0.00,0.00,VWS V14.01,2013-04-24 08:26:00,
2013-04-24 04:30:00,49.9,46.2,30.13,SSE,157,0.0,7.0,87,0.00,,---,0.00,0.00,VWS V14.01,2013-04-24 08:30:00,
2013-04-24 04:31:00,49.9,46.2,30.13,SSE,157,0.0,7.0,87,0.00,,---,0.00,0.00,VWS V14.01,2013-04-24 08:31:00,
2013-04-24 04:36:00,49.8,46.1,30.13,South,169,0.0,3.0,87,0.00,,---,0.00,0.00,VWS V14.01,2013-04-24 08:36:00,
2013-04-24 04:41:00,49.7,46.3,30.13,South,173,0.0,4.0,88,0.00,,---,0.00,0.00,VWS V14.01,2013-04-24 08:41:00,
2013-04-24 04:46:00,49.8,46.4,30.13,South,173,3.0,5.0,88,0.00,,---,0.00,0.00,VWS V14.01,2013-04-24 08:46:00,
2013-04-24 04:52:00,49.9,46.5,30.13,SSE,166,3.0,5.0,88,0.00,,---,0.00,0.00,VWS V14.01,2013-04-24 08:52:00,
2013-04-24 04:57:00,50.0,46.6,30.13,East,82,0.0,5.0,88,0.00,,---,0.00,0.00,VWS V14.01,2013-04-24 08:57:00,
2013-04-24 05:00:00,50.0,46.6,30.13,South,169,0.0,5.0,88,0.00,,---,0.00,0.00,VWS V14.01,2013-04-24 09:00:00,
2013-04-24 05:02:00,50.0,46.6,30.13,South,169,0.0,5.0,88,0.00,,---,0.00,0.00,VWS V14.01,2013-04-24 09:02:00,
2013-04-24 05:07:00,50.0,46.3,30.13,South,169,0.0,1.0,87,0.00,,---,0.00,0.00,VWS V14.01,2013-04-24 09:07:00,
2013-04-24 05:12:00,50.0,46.3,30.13,South,169,0.0,1.0,87,0.00,,---,0.00,0.00,VWS V14.01,2013-04-24 09:12:00,
2013-04-24 05:17:00,49.9,46.2,30.12,South,169,0.0,1.0,87,0.00,,---,0.00,0.00,VWS V14.01,2013-04-24 09:17:00,
2013-04-24 05:22:00,49.8,46.1,30.12,South,169,0.0,1.0,87,0.00,,---,0.00,0.00,VWS V14.01,2013-04-24 09:22:00,
2013-04-24 05:27:00,49.7,46.0,30.12,South,169,0.0,5.0,87,0.00,,---,0.00,0.00,VWS V14.01,2013-04-24 09:27:00,
2013-04-24 05:30:00,49.7,46.3,30.12,South,171,0.0,5.0,88,0.00,,---,0.00,0.00,VWS V14.01,2013-04-24 09:30:00,
2013-04-24 05:32:00,49.7,46.3,30.12,South,171,0.0,5.0,88,0.00,,---,0.00,0.00,VWS V14.01,2013-04-24 09:32:00,
2013-04-24 05:38:00,49.7,46.3,30.12,SW,228,0.0,6.0,88,0.00,,---,0.00,0.00,VWS V14.01,2013-04-24 09:38:00,
2013-04-24 05:43:00,49.7,46.3,30.13,South,174,0.0,6.0,88,0.00,,---,0.00,0.00,VWS V14.01,2013-04-24 09:43:00,
2013-04-24 05:48:00,49.8,46.4,30.13,South,184,0.0,6.0,88,0.00,,---,0.00,0.00,VWS V14.01,2013-04-24 09:48:00,
2013-04-24 05:53:00,49.9,46.5,30.13,South,173,0.0,6.0,88,0.00,,---,0.00,0.00,VWS V14.01,2013-04-24 09:53:00,
2013-04-24 05:58:00,49.9,46.2,30.13,South,169,0.0,6.0,87,0.00,,---,0.00,0.00,VWS V14.01,2013-04-24 09:58:00,
2013-04-24 06:00:00,49.9,46.2,30.13,South,169,2.0,6.0,87,0.00,,---,0.00,0.00,VWS V14.01,2013-04-24 10:00:00,
2013-04-24 06:03:00,49.9,46.2,30.13,South,169,0.0,3.0,87,0.00,,---,0.00,0.00,VWS V14.01,2013-04-24 10:03:00,
2013-04-24 06:08:00,49.9,46.2,30.13,East,95,0.0,4.0,87,0.00,,---,0.00,0.00,VWS V14.01,2013-04-24 10:08:00,
2013-04-24 06:13:00,49.9,46.2,30.13,East,95,0.0,4.0,87,0.00,,---,0.00,0.00,VWS V14.01,2013-04-24 10:13:00,
2013-04-24 06:19:00,49.8,46.1,30.13,East,95,0.0,4.0,87,0.00,,---,0.00,0.00,VWS V14.01,2013-04-24 10:19:00,
2013-04-24 06:24:00,49.7,45.7,30.13,East,95,0.0,4.0,86,0.00,,---,0.00,0.00,VWS V14.01,2013-04-24 10:24:00,
2013-04-24 06:29:00,49.6,45.9,30.12,East,95,0.0,4.0,87,0.00,,---,0.00,0.00,VWS V14.01,2013-04-24 10:29:00,
2013-04-24 06:30:00,49.5,45.8,30.12,East,95,0.0,4.0,87,0.00,,---,0.00,0.00,VWS V14.01,2013-04-24 10:30:00,
2013-04-24 06:34:00,49.5,45.8,30.12,East,95,0.0,0.0,87,0.00,,---,0.00,0.00,VWS V14.01,2013-04-24 10:34:00,
2013-04-24 06:39:00,49.3,45.6,30.12,East,95,0.0,1.0,87,0.00,,---,0.00,0.00,VWS V14.01,2013-04-24 10:39:00,
2013-04-24 06:44:00,49.1,45.4,30.12,East,95,0.0,1.0,87,0.00,,---,0.00,5.00,VWS V14.01,2013-04-24 10:44:00,
2013-04-24 06:49:00,48.9,45.2,30.13,East,95,0.0,1.0,87,0.00,,---,0.00,7.00,VWS V14.01,2013-04-24 10:49:00,
2013-04-24 06:54:00,48.7,45.3,30.13,East,95,0.0,1.0,88,0.00,,---,0.00,12.00,VWS V14.01,2013-04-24 10:54:00,
2013-04-24 07:00:00,48.6,45.2,30.12,East,95,0.0,1.0,88,0.00,,---,0.00,14.00,VWS V14.01,2013-04-24 11:00:00,
2013-04-24 07:05:00,48.4,45.0,30.12,East,95,0.0,1.0,88,0.00,,---,0.00,16.00,VWS V14.01,2013-04-24 11:05:00,
2013-04-24 07:10:00,48.3,45.2,30.12,East,95,0.0,1.0,89,0.00,,---,0.00,18.00,VWS V14.01,2013-04-24 11:10:00,
2013-04-24 07:15:00,48.2,45.1,30.12,East,95,0.0,1.0,89,0.00,,---,0.00,19.00,VWS V14.01,2013-04-24 11:15:00,
2013-04-24 07:20:00,48.3,45.5,30.13,SSW,202,0.0,6.0,90,0.00,,---,0.00,21.00,VWS V14.01,2013-04-24 11:20:00,
2013-04-24 07:25:00,48.5,46.0,30.13,SSW,202,0.0,6.0,91,0.00,,---,0.00,21.00,VWS V14.01,2013-04-24 11:25:00,
2013-04-24 07:30:00,48.6,46.1,30.13,South,184,0.0,6.0,91,0.00,,---,0.00,26.00,VWS V14.01,2013-04-24 11:30:00,
2013-04-24 07:35:00,48.7,45.9,30.12,South,184,0.0,2.0,90,0.00,,---,0.00,26.00,VWS V14.01,2013-04-24 11:35:00,
2013-04-24 07:41:00,48.9,46.1,30.12,SW,215,1.0,3.0,90,0.00,,---,0.00,32.00,VWS V14.01,2013-04-24 11:41:00,
2013-04-24 07:57:00,49.6,46.8,30.12,SSE,161,5.0,5.0,90,0.00,,---,0.00,39.00,VWS V14.01,2013-04-24 11:57:00,
2013-04-24 08:00:00,50.0,46.9,30.12,SSE,159,0.0,5.0,89,0.00,,---,0.00,40.00,VWS V14.01,2013-04-24 12:00:00,
2013-04-24 08:02:00,49.9,46.8,30.12,SSE,150,0.0,5.0,89,0.00,,---,0.00,40.00,VWS V14.01,2013-04-24 12:02:00,
2013-04-24 08:07:00,50.3,47.2,30.12,SSW,200,0.0,5.0,89,0.00,,---,0.00,44.00,VWS V14.01,2013-04-24 12:07:00,
2013-04-24 08:13:00,50.5,47.1,30.12,SSW,200,2.0,5.0,88,0.00,,---,0.00,47.00,VWS V14.01,2013-04-24 12:13:00,
2013-04-24 08:18:00,50.7,47.3,30.12,South,180,4.0,5.0,88,0.00,,---,0.00,58.00,VWS V14.01,2013-04-24 12:18:00,
2013-04-24 08:23:00,51.0,47.3,30.12,South,188,0.0,5.0,87,0.00,,---,0.00,54.00,VWS V14.01,2013-04-24 12:23:00,
2013-04-24 08:28:00,51.4,47.4,30.12,SSW,196,0.0,5.0,86,0.00,,---,0.00,83.00,VWS V14.01,2013-04-24 12:28:00,
2013-04-24 08:30:00,51.6,47.6,30.12,SSW,196,0.0,5.0,86,0.00,,---,0.00,148.00,VWS V14.01,2013-04-24 12:30:00,
2013-04-24 08:33:00,51.7,47.7,30.12,SSW,196,0.0,0.0,86,0.00,,---,0.00,137.00,VWS V14.01,2013-04-24 12:33:00,
2013-04-24 08:38:00,52.0,47.6,30.11,West,261,0.0,1.0,85,0.00,,---,0.00,137.00,VWS V14.01,2013-04-24 12:38:00,
2013-04-24 08:43:00,52.4,48.0,30.11,WNW,285,0.0,5.0,85,0.00,,---,0.00,236.00,VWS V14.01,2013-04-24 12:43:00,
2013-04-24 08:48:00,52.9,48.2,30.11,South,190,0.0,5.0,84,0.00,,---,0.00,181.00,VWS V14.01,2013-04-24 12:48:00,
2013-04-24 08:53:00,53.4,48.4,30.11,SSE,158,3.0,5.0,83,0.00,,---,0.00,225.00,VWS V14.01,2013-04-24 12:53:00,
2013-04-24 08:59:00,54.1,49.1,30.10,SSE,155,0.0,5.0,83,0.00,,---,0.00,113.00,VWS V14.01,2013-04-24 12:59:00,
2013-04-24 09:00:00,54.8,49.4,30.10,ESE,113,0.0,5.0,82,0.00,,---,0.00,334.00,VWS V14.01,2013-04-24 13:00:00,
2013-04-24 09:04:00,55.0,49.3,30.11,SSE,165,1.0,1.0,81,0.00,,---,0.00,322.00,VWS V14.01,2013-04-24 13:04:00,
2013-04-24 09:09:00,55.9,49.5,30.10,SSE,164,2.0,5.0,79,0.00,,---,0.00,353.00,VWS V14.01,2013-04-24 13:09:00,
2013-04-24 09:14:00,56.7,49.9,30.10,South,182,4.0,5.0,78,0.00,,---,0.00,329.00,VWS V14.01,2013-04-24 13:14:00,
2013-04-24 09:19:00,57.4,49.5,30.10,South,171,1.0,5.0,75,0.00,,---,0.00,218.00,VWS V14.01,2013-04-24 13:19:00,
2013-04-24 09:24:00,57.9,49.3,30.10,South,175,0.0,8.0,73,0.00,,---,0.00,417.00,VWS V14.01,2013-04-24 13:24:00,
2013-04-24 09:29:00,58.3,49.3,30.10,SSE,161,3.0,8.0,72,0.00,,---,0.00,506.00,VWS V14.01,2013-04-24 13:29:00,
2013-04-24 09:30:00,58.6,49.2,30.10,SSW,193,5.0,11.0,71,0.00,,---,0.00,536.00,VWS V14.01,2013-04-24 13:30:00,
2013-04-24 09:34:00,58.7,49.3,30.10,South,174,2.0,11.0,71,0.00,,---,0.00,543.00,VWS V14.01,2013-04-24 13:34:00,
2013-04-24 09:40:00,59.1,49.3,30.09,South,175,4.0,11.0,70,0.00,,---,0.00,527.00,VWS V14.01,2013-04-24 13:40:00,
2013-04-24 09:45:00,59.6,49.4,30.09,South,170,3.0,11.0,69,0.00,,---,0.00,563.00,VWS V14.01,2013-04-24 13:45:00,
2013-04-24 09:50:00,60.4,50.2,30.09,East,90,0.0,11.0,69,0.00,,---,0.00,543.00,VWS V14.01,2013-04-24 13:50:00,
2013-04-24 09:55:00,60.9,49.9,30.08,SW,217,3.0,11.0,67,0.00,,---,0.00,476.00,VWS V14.01,2013-04-24 13:55:00,
2013-04-24 10:00:00,61.5,49.6,30.08,South,186,5.0,11.0,65,0.00,,---,0.00,591.00,VWS V14.01,2013-04-24 14:00:00,
2013-04-24 10:05:00,61.9,50.4,30.08,SSW,200,3.0,11.0,66,0.00,,---,0.00,663.00,VWS V14.01,2013-04-24 14:05:00,
2013-04-24 10:10:00,62.2,50.3,30.08,SW,225,3.0,11.0,65,0.00,,---,0.00,527.00,VWS V14.01,2013-04-24 14:10:00,
2013-04-24 10:15:00,62.5,50.6,30.07,South,186,4.0,11.0,65,0.00,,---,0.00,522.00,VWS V14.01,2013-04-24 14:15:00,
2013-04-24 10:21:00,62.6,50.7,30.08,SSE,153,3.0,11.0,65,0.00,,---,0.00,410.00,VWS V14.01,2013-04-24 14:21:00,
2013-04-24 10:26:00,62.6,51.9,30.07,South,173,3.0,11.0,68,0.00,,---,0.00,621.00,VWS V14.01,2013-04-24 14:26:00,
2013-04-24 10:30:00,63.1,50.7,30.07,SW,223,3.0,12.0,64,0.00,,---,0.00,657.00,VWS V14.01,2013-04-24 14:30:00,
2013-04-24 10:31:00,63.0,50.2,30.08,South,172,5.0,12.0,63,0.00,,---,0.00,693.00,VWS V14.01,2013-04-24 14:31:00,
2013-04-24 10:36:00,63.2,50.8,30.07,SW,214,6.0,6.0,64,0.00,,---,0.00,671.00,VWS V14.01,2013-04-24 14:36:00,
2013-04-24 10:41:00,63.6,51.6,30.07,SSE,161,3.0,10.0,65,0.00,,---,0.00,668.00,VWS V14.01,2013-04-24 14:41:00,
2013-04-24 10:46:00,63.8,51.8,30.06,SSE,149,4.0,10.0,65,0.00,,---,0.00,765.00,VWS V14.01,2013-04-24 14:46:00,
2013-04-24 10:51:00,63.6,50.8,30.07,SSW,196,4.0,12.0,63,0.00,,---,0.00,777.00,VWS V14.01,2013-04-24 14:51:00,
2013-04-24 10:56:00,63.2,50.8,30.06,SSE,159,1.0,12.0,64,0.00,,---,0.00,782.00,VWS V14.01,2013-04-24 14:56:00,
2013-04-24 11:00:00,63.5,51.1,30.07,South,178,0.0,12.0,64,0.00,,---,0.00,796.00,VWS V14.01,2013-04-24 15:00:00,
2013-04-24 11:02:00,63.4,51.4,30.07,South,169,0.0,12.0,65,0.00,,---,0.00,795.00,VWS V14.01,2013-04-24 15:02:00,
2013-04-24 11:09:00,64.2,51.8,30.07,SSE,165,4.0,9.0,64,0.00,,---,0.00,803.00,VWS V14.01,2013-04-24 15:09:00,
2013-04-24 11:14:00,64.3,51.9,30.07,South,180,3.0,9.0,64,0.00,,---,0.00,833.00,VWS V14.01,2013-04-24 15:14:00,
2013-04-24 11:19:00,64.6,51.3,30.06,SSW,207,0.0,12.0,62,0.00,,---,0.00,851.00,VWS V14.01,2013-04-24 15:19:00,
2013-04-24 11:24:00,64.9,51.6,30.05,ENE,75,6.0,13.0,62,0.00,,---,0.00,782.00,VWS V14.01,2013-04-24 15:24:00,
2013-04-24 11:30:00,64.5,51.2,30.05,NNW,338,2.0,13.0,62,0.00,,---,0.00,649.00,VWS V14.01,2013-04-24 15:30:00,
2013-04-24 11:35:00,64.0,51.2,30.06,SSE,156,6.0,12.0,63,0.00,,---,0.00,851.00,VWS V14.01,2013-04-24 15:35:00,
2013-04-24 11:40:00,63.6,51.2,30.05,SSE,157,0.0,12.0,64,0.00,,---,0.00,881.00,VWS V14.01,2013-04-24 15:40:00,
2013-04-24 11:45:00,63.8,51.8,30.05,East,99,0.0,12.0,65,0.00,,---,0.00,846.00,VWS V14.01,2013-04-24 15:45:00,
2013-04-24 11:50:00,64.4,52.4,30.05,SW,223,2.0,12.0,65,0.00,,---,0.00,742.00,VWS V14.01,2013-04-24 15:50:00,
2013-04-24 11:55:00,64.8,51.5,30.06,SSW,196,0.0,15.0,62,0.00,,---,0.00,888.00,VWS V14.01,2013-04-24 15:55:00,
2013-04-24 12:00:00,65.5,51.7,30.06,South,186,2.0,15.0,61,0.00,,---,0.00,719.00,VWS V14.01,2013-04-24 16:00:00,
2013-04-24 12:05:00,65.7,51.9,30.06,SE,142,5.0,9.0,61,0.00,,---,0.00,907.00,VWS V14.01,2013-04-24 16:05:00,
2013-04-24 12:11:00,66.1,51.8,30.06,East,84,3.0,9.0,60,0.00,,---,0.00,1011.00,VWS V14.01,2013-04-24 16:11:00,
2013-04-24 12:16:00,65.9,52.5,30.07,SE,135,5.0,9.0,62,0.00,,---,0.00,499.00,VWS V14.01,2013-04-24 16:16:00,
2013-04-24 12:21:00,66.3,53.3,30.06,South,182,1.0,9.0,63,0.00,,---,0.00,438.00,VWS V14.01,2013-04-24 16:21:00,
2013-04-24 12:26:00,66.1,52.7,30.06,South,181,7.0,13.0,62,0.00,,---,0.00,394.00,VWS V14.01,2013-04-24 16:26:00,
2013-04-24 12:30:00,65.2,52.7,30.07,SSW,196,2.0,13.0,64,0.00,,---,0.00,468.00,VWS V14.01,2013-04-24 16:30:00,
2013-04-24 12:31:00,65.4,52.1,30.07,SW,221,2.0,13.0,62,0.00,,---,0.00,469.00,VWS V14.01,2013-04-24 16:31:00,
2013-04-24 12:36:00,64.9,52.5,30.07,SSW,205,0.0,5.0,64,0.00,,---,0.00,473.00,VWS V14.01,2013-04-24 16:36:00,
2013-04-24 12:41:00,64.6,52.6,30.06,NE,43,0.0,13.0,65,0.00,,---,0.00,438.00,VWS V14.01,2013-04-24 16:41:00,
2013-04-24 12:46:00,64.3,52.7,30.06,South,175,0.0,13.0,66,0.00,,---,0.00,566.00,VWS V14.01,2013-04-24 16:46:00,
2013-04-24 12:52:00,64.7,53.9,30.06,SE,130,3.0,13.0,68,0.00,,---,0.00,724.00,VWS V14.01,2013-04-24 16:52:00,
2013-04-24 12:57:00,65.0,53.0,30.06,South,180,4.0,13.0,65,0.00,,---,0.00,965.00,VWS V14.01,2013-04-24 16:57:00,
2013-04-24 13:00:00,65.4,52.5,30.07,South,171,5.0,14.0,63,0.00,,---,0.00,918.00,VWS V14.01,2013-04-24 17:00:00,
2013-04-24 13:02:00,65.4,52.9,30.07,SSW,207,6.0,14.0,64,0.00,,---,0.00,918.00,VWS V14.01,2013-04-24 17:02:00,
2013-04-24 13:07:00,65.7,52.8,30.06,West,265,2.0,12.0,63,0.00,,---,0.00,406.00,VWS V14.01,2013-04-24 17:07:00,
2013-04-24 13:12:00,66.5,53.5,30.07,SW,217,5.0,12.0,63,0.00,,---,0.00,406.00,VWS V14.01,2013-04-24 17:12:00,
2013-04-24 13:17:00,67.4,53.9,30.06,South,176,5.0,12.0,62,0.00,,---,0.00,953.00,VWS V14.01,2013-04-24 17:17:00,
2013-04-24 13:22:00,67.8,53.9,30.05,SSE,163,2.0,12.0,61,0.00,,---,0.00,900.00,VWS V14.01,2013-04-24 17:22:00,
2013-04-24 13:27:00,68.0,53.2,30.05,SW,219,10.0,12.0,59,0.00,,---,0.00,687.00,VWS V14.01,2013-04-24 17:27:00,
2013-04-24 13:30:00,67.9,52.1,30.05,SSE,159,0.0,17.0,57,0.00,,---,0.00,731.00,VWS V14.01,2013-04-24 17:30:00,
2013-04-24 13:32:00,67.9,52.1,30.05,SSE,159,0.0,17.0,57,0.00,,---,0.00,731.00,VWS V14.01,2013-04-24 17:32:00,
2013-04-24 13:38:00,68.1,53.7,30.05,SE,143,1.0,6.0,60,0.00,,---,0.00,719.00,VWS V14.01,2013-04-24 17:38:00,
2013-04-24 13:43:00,68.0,53.6,30.05,East,91,0.0,16.0,60,0.00,,---,0.00,703.00,VWS V14.01,2013-04-24 17:43:00,
2013-04-24 13:48:00,68.2,54.2,30.04,East,89,0.0,16.0,61,0.00,,---,0.00,599.00,VWS V14.01,2013-04-24 17:48:00,
2013-04-24 13:53:00,68.3,53.4,30.03,SSE,166,3.0,16.0,59,0.00,,---,0.00,640.00,VWS V14.01,2013-04-24 17:53:00,
2013-04-24 13:58:00,68.6,54.2,30.03,SE,146,0.0,16.0,60,0.00,,---,0.00,661.00,VWS V14.01,2013-04-24 17:58:00,
2013-04-24 14:00:00,68.8,53.9,30.03,SSE,167,1.0,16.0,59,0.00,,---,0.00,638.00,VWS V14.01,2013-04-24 18:00:00,
2013-04-24 14:03:00,68.9,54.0,30.03,SW,234,0.0,9.0,59,0.00,,---,0.00,638.00,VWS V14.01,2013-04-24 18:03:00,
2013-04-24 14:08:00,69.4,53.5,30.03,NE,44,3.0,9.0,57,0.00,,---,0.00,568.00,VWS V14.01,2013-04-24 18:08:00,
2013-04-24 14:13:00,69.6,53.7,30.04,South,170,6.0,10.0,57,0.00,,---,0.00,385.00,VWS V14.01,2013-04-24 18:13:00,
2013-04-24 14:18:00,69.4,53.5,30.05,SSE,161,5.0,10.0,57,0.00,,---,0.00,439.00,VWS V14.01,2013-04-24 18:18:00,
2013-04-24 14:24:00,69.0,53.2,30.03,South,190,5.0,12.0,57,0.00,,---,0.00,378.00,VWS V14.01,2013-04-24 18:24:00,
2013-04-24 14:29:00,69.2,53.3,30.03,South,169,4.0,12.0,57,0.00,,---,0.00,302.00,VWS V14.01,2013-04-24 18:29:00,
2013-04-24 14:30:00,69.3,53.9,30.03,SSW,208,2.0,12.0,58,0.00,,---,0.00,309.00,VWS V14.01,2013-04-24 18:30:00,
2013-04-24 14:34:00,69.3,53.9,30.03,South,174,14.0,14.0,58,0.00,,---,0.00,309.00,VWS V14.01,2013-04-24 18:34:00,
2013-04-24 14:39:00,69.2,53.8,30.03,SSE,168,4.0,14.0,58,0.00,,---,0.00,508.00,VWS V14.01,2013-04-24 18:39:00,
2013-04-24 14:44:00,69.1,54.2,30.03,SSE,163,3.0,14.0,59,0.00,,---,0.00,418.00,VWS V14.01,2013-04-24 18:44:00,
2013-04-24 14:49:00,69.1,54.2,30.04,WNW,290,0.0,14.0,59,0.00,,---,0.00,441.00,VWS V14.01,2013-04-24 18:49:00,
2013-04-24 14:54:00,69.1,54.2,30.03,SSE,167,0.0,14.0,59,0.00,,---,0.00,334.00,VWS V14.01,2013-04-24 18:54:00,
2013-04-24 14:59:00,69.2,54.7,30.04,South,184,4.0,14.0,60,0.00,,---,0.00,360.00,VWS V14.01,2013-04-24 18:59:00,
2013-04-24 15:00:00,69.3,54.4,30.04,SW,215,2.0,14.0,59,0.00,,---,0.00,445.00,VWS V14.01,2013-04-24 19:00:00,
2013-04-24 15:05:00,69.4,54.9,30.03,SSE,164,11.0,12.0,60,0.00,,---,0.00,499.00,VWS V14.01,2013-04-24 19:05:00,
2013-04-24 15:10:00,69.4,54.5,30.03,South,179,9.0,16.0,59,0.00,,---,0.00,596.00,VWS V14.01,2013-04-24 19:10:00,
2013-04-24 15:15:00,69.4,54.9,30.02,South,178,3.0,16.0,60,0.00,,---,0.00,617.00,VWS V14.01,2013-04-24 19:15:00,
2013-04-24 15:20:00,69.8,55.3,30.02,SW,229,4.0,16.0,60,0.00,,---,0.00,622.00,VWS V14.01,2013-04-24 19:20:00,
2013-04-24 15:25:00,70.2,55.2,30.02,East,99,1.0,16.0,59,0.00,,---,0.00,318.00,VWS V14.01,2013-04-24 19:25:00,
2013-04-24 15:30:00,70.4,55.9,30.01,SSW,194,5.0,16.0,60,0.00,,---,0.00,362.00,VWS V14.01,2013-04-24 19:30:00,
2013-04-24 15:35:00,70.0,55.5,30.01,SSW,213,0.0,8.0,60,0.00,,---,0.00,388.00,VWS V14.01,2013-04-24 19:35:00,
2013-04-24 15:40:00,69.5,55.5,30.01,SSE,161,0.0,14.0,61,0.00,,---,0.00,297.00,VWS V14.01,2013-04-24 19:40:00,
2013-04-24 15:46:00,68.8,55.3,30.00,NE,44,2.0,14.0,62,0.00,,---,0.00,246.00,VWS V14.01,2013-04-24 19:46:00,
2013-04-24 15:51:00,68.2,55.6,30.00,WSW,248,0.0,14.0,64,0.00,,---,0.00,206.00,VWS V14.01,2013-04-24 19:51:00,
2013-04-24 15:56:00,68.0,55.4,30.00,SSE,161,0.0,14.0,64,0.00,,---,0.00,236.00,VWS V14.01,2013-04-24 19:56:00,
2013-04-24 16:00:00,67.8,55.6,30.00,South,178,0.0,14.0,65,0.00,,---,0.00,492.00,VWS V14.01,2013-04-24 20:00:00,
2013-04-24 16:01:00,67.7,55.5,30.00,NNE,32,3.0,14.0,65,0.00,,---,0.00,422.00,VWS V14.01,2013-04-24 20:01:00,
2013-04-24 16:06:00,67.9,55.7,30.00,South,173,0.0,9.0,65,0.00,,---,0.00,413.00,VWS V14.01,2013-04-24 20:06:00,
2013-04-24 16:11:00,68.3,56.1,30.00,SSE,159,0.0,12.0,65,0.00,,---,0.00,355.00,VWS V14.01,2013-04-24 20:11:00,
2013-04-24 16:16:00,68.5,55.9,30.00,South,171,0.0,12.0,64,0.00,,---,0.00,325.00,VWS V14.01,2013-04-24 20:16:00,
2013-04-24 16:21:00,68.6,56.0,30.00,SW,221,2.0,12.0,64,0.00,,---,0.00,225.00,VWS V14.01,2013-04-24 20:21:00,
2013-04-24 16:27:00,68.6,55.5,30.00,SSE,147,0.0,12.0,63,0.00,,---,0.00,223.00,VWS V14.01,2013-04-24 20:27:00,
2013-04-24 16:30:00,68.3,56.1,30.00,SSE,165,5.0,13.0,65,0.00,,---,0.00,281.00,VWS V14.01,2013-04-24 20:30:00,
2013-04-24 16:32:00,68.4,55.8,30.00,South,174,3.0,13.0,64,0.00,,---,0.00,287.00,VWS V14.01,2013-04-24 20:32:00,
2013-04-24 16:37:00,68.2,56.4,30.00,South,174,5.0,7.0,66,0.00,,---,0.00,279.00,VWS V14.01,2013-04-24 20:37:00,
2013-04-24 16:42:00,67.9,55.7,29.99,SSE,150,3.0,15.0,65,0.00,,---,0.00,251.00,VWS V14.01,2013-04-24 20:42:00,
2013-04-24 16:47:00,67.7,56.0,29.99,SSE,147,2.0,15.0,66,0.00,,---,0.00,236.00,VWS V14.01,2013-04-24 20:47:00,
2013-04-24 16:52:00,67.6,55.8,29.99,SW,228,6.0,15.0,66,0.00,,---,0.00,227.00,VWS V14.01,2013-04-24 20:52:00,
2013-04-24 16:57:00,67.5,55.8,29.99,South,182,6.0,15.0,66,0.00,,---,0.00,283.00,VWS V14.01,2013-04-24 20:57:00,
2013-04-24 17:00:00,67.5,56.2,29.99,SE,146,4.0,15.0,67,0.00,,---,0.00,246.00,VWS V14.01,2013-04-24 21:00:00,
2013-04-24 17:02:00,67.5,56.2,29.99,SE,134,1.0,15.0,67,0.00,,---,0.00,246.00,VWS V14.01,2013-04-24 21:02:00,
2013-04-24 17:08:00,67.5,56.2,30.00,SSW,198,0.0,10.0,67,0.00,,---,0.00,244.00,VWS V14.01,2013-04-24 21:08:00,
2013-04-24 17:13:00,67.4,55.7,29.99,SSE,162,6.0,14.0,66,0.00,,---,0.00,244.00,VWS V14.01,2013-04-24 21:13:00,
2013-04-24 17:18:00,67.5,56.2,29.99,South,169,7.0,14.0,67,0.00,,---,0.00,290.00,VWS V14.01,2013-04-24 21:18:00,
2013-04-24 17:23:00,67.4,56.1,30.00,SSE,154,3.0,14.0,67,0.00,,---,0.00,118.00,VWS V14.01,2013-04-24 21:23:00,
2013-04-24 17:28:00,67.2,55.9,30.00,South,175,0.0,14.0,67,0.00,,---,0.00,42.00,VWS V14.01,2013-04-24 21:28:00,
2013-04-24 17:30:00,67.0,55.7,30.01,WSW,237,0.0,14.0,67,0.00,,---,0.00,16.00,VWS V14.01,2013-04-24 21:30:00,
2013-04-24 17:33:00,66.9,56.0,30.01,WSW,240,0.0,0.0,68,0.00,,---,0.00,14.00,VWS V14.01,2013-04-24 21:33:00,
2013-04-24 17:38:00,66.6,56.5,30.02,West,269,0.0,3.0,70,0.00,,---,0.00,5.00,VWS V14.01,2013-04-24 21:38:00,
2013-04-24 17:43:00,66.1,57.6,30.02,WNW,289,0.0,5.0,74,0.03,,---,0.03,0.00,VWS V14.01,2013-04-24 21:43:00,
2013-04-24 17:49:00,64.7,57.3,30.03,WSW,246,4.0,6.0,77,0.06,,---,0.06,5.00,VWS V14.01,2013-04-24 21:49:00,
2013-04-24 17:54:00,63.6,57.3,30.02,WSW,252,0.0,6.0,80,0.06,,---,0.06,12.00,VWS V14.01,2013-04-24 21:54:00,
2013-04-24 17:59:00,63.0,57.4,30.02,WSW,252,0.0,6.0,82,0.07,,---,0.07,21.00,VWS V14.01,2013-04-24 21:59:00,
2013-04-24 18:00:00,62.7,57.5,30.02,WSW,252,0.0,6.0,83,0.07,,---,0.07,47.00,VWS V14.01,2013-04-24 22:00:00,
2013-04-24 18:04:00,62.5,57.6,30.02,WSW,252,0.0,0.0,84,0.07,,---,0.07,47.00,VWS V14.01,2013-04-24 22:04:00,
2013-04-24 18:09:00,62.1,56.9,30.02,SSW,211,0.0,3.0,83,0.07,,---,0.07,72.00,VWS V14.01,2013-04-24 22:09:00,
2013-04-24 18:14:00,61.5,54.6,30.02,WSW,243,5.0,8.0,78,0.07,,---,0.07,67.00,VWS V14.01,2013-04-24 22:14:00,
2013-04-24 18:19:00,61.1,53.5,30.01,SW,224,0.0,8.0,76,0.07,,---,0.07,54.00,VWS V14.01,2013-04-24 22:19:00,
2013-04-24 18:24:00,61.0,53.0,30.01,WSW,244,9.0,11.0,75,0.07,,---,0.07,62.00,VWS V14.01,2013-04-24 22:24:00,
2013-04-24 18:29:00,61.2,53.2,30.02,SSW,209,12.0,12.0,75,0.07,,---,0.07,60.00,VWS V14.01,2013-04-24 22:29:00,
2013-04-24 18:30:00,61.3,52.6,30.02,South,171,4.0,12.0,73,0.07,,---,0.07,40.00,VWS V14.01,2013-04-24 22:30:00,
2013-04-24 18:34:00,61.5,52.8,30.01,SSW,205,4.0,7.0,73,0.07,,---,0.07,37.00,VWS V14.01,2013-04-24 22:34:00,
2013-04-24 18:40:00,61.7,52.6,30.02,SSW,207,4.0,20.0,72,0.07,,---,0.07,54.00,VWS V14.01,2013-04-24 22:40:00,
2013-04-24 18:45:00,61.8,53.1,30.02,SW,223,3.0,20.0,73,0.07,,---,0.07,51.00,VWS V14.01,2013-04-24 22:45:00,
2013-04-24 18:50:00,61.8,53.1,30.02,SSW,213,0.0,20.0,73,0.07,,---,0.07,33.00,VWS V14.01,2013-04-24 22:50:00,
2013-04-24 18:55:00,61.8,53.4,30.03,West,266,5.0,20.0,74,0.07,,---,0.07,30.00,VWS V14.01,2013-04-24 22:55:00,
2013-04-24 19:00:00,61.7,53.3,30.04,WSW,254,10.0,20.0,74,0.07,,---,0.07,44.00,VWS V14.01,2013-04-24 23:00:00,
2013-04-24 19:05:00,61.7,53.3,30.03,WNW,288,2.0,15.0,74,0.00,,---,0.07,30.00,VWS V14.01,2013-04-24 23:05:00,
2013-04-24 19:10:00,61.6,53.6,30.04,SW,236,3.0,15.0,75,0.00,,---,0.07,19.00,VWS V14.01,2013-04-24 23:10:00,
2013-04-24 19:15:00,61.4,53.8,30.04,NW,305,6.0,15.0,76,0.00,,---,0.07,18.00,VWS V14.01,2013-04-24 23:15:00,
2013-04-24 19:21:00,61.3,53.7,30.03,SSW,199,0.0,15.0,76,0.00,,---,0.07,12.00,VWS V14.01,2013-04-24 23:21:00,
2013-04-24 19:26:00,61.2,53.9,30.04,SSW,208,6.0,15.0,77,0.00,,---,0.07,12.00,VWS V14.01,2013-04-24 23:26:00,
2013-04-24 19:30:00,61.1,53.8,30.04,SSW,207,5.0,15.0,77,0.00,,---,0.07,14.00,VWS V14.01,2013-04-24 23:30:00,
2013-04-24 19:31:00,61.1,53.8,30.04,South,190,6.0,15.0,77,0.00,,---,0.07,12.00,VWS V14.01,2013-04-24 23:31:00,
2013-04-24 19:36:00,61.1,53.8,30.03,SW,230,1.0,5.0,77,0.00,,---,0.07,18.00,VWS V14.01,2013-04-24 23:36:00,
2013-04-24 19:41:00,61.1,54.2,30.03,SSW,208,5.0,10.0,78,0.00,,---,0.07,16.00,VWS V14.01,2013-04-24 23:41:00,
2013-04-24 19:46:00,61.1,54.2,30.03,WSW,246,3.0,11.0,78,0.00,,---,0.07,16.00,VWS V14.01,2013-04-24 23:46:00,
2013-04-24 19:51:00,61.0,54.1,30.03,WSW,244,0.0,11.0,78,0.00,,---,0.07,7.00,VWS V14.01,2013-04-24 23:51:00,
2013-04-24 19:56:00,60.9,54.0,30.03,SW,234,3.0,11.0,78,0.00,,---,0.07,7.00,VWS V14.01,2013-04-24 23:56:00,
2013-04-24 20:00:00,60.9,54.0,30.04,SW,218,1.0,11.0,78,0.00,,---,0.07,0.00,VWS V14.01,2013-04-25 00:00:00,
2013-04-24 20:02:00,60.9,54.0,30.04,SSW,213,5.0,11.0,78,0.00,,---,0.07,0.00,VWS V14.01,2013-04-25 00:02:00,
2013-04-24 20:07:00,60.9,54.3,30.04,SW,230,2.0,6.0,79,0.00,,---,0.07,0.00,VWS V14.01,2013-04-25 00:07:00,
2013-04-24 20:12:00,60.8,54.3,30.04,SSW,213,4.0,9.0,79,0.00,,---,0.07,0.00,VWS V14.01,2013-04-25 00:12:00,
2013-04-24 20:17:00,60.7,54.2,30.04,SW,230,0.0,9.0,79,0.00,,---,0.07,0.00,VWS V14.01,2013-04-25 00:17:00,
2013-04-24 20:22:00,60.7,54.5,30.04,SW,225,3.0,9.0,80,0.00,,---,0.07,0.00,VWS V14.01,2013-04-25 00:22:00,
2013-04-24 20:27:00,60.6,54.4,30.04,West,272,0.0,9.0,80,0.00,,---,0.07,0.00,VWS V14.01,2013-04-25 00:27:00,
2013-04-24 20:30:00,60.6,54.4,30.04,WSW,239,4.0,9.0,80,0.00,,---,0.07,0.00,VWS V14.01,2013-04-25 00:30:00,
2013-04-24 20:32:00,60.6,54.4,30.04,SW,225,5.0,9.0,80,0.00,,---,0.07,0.00,VWS V14.01,2013-04-25 00:32:00,
2013-04-24 20:37:00,60.6,54.4,30.04,SW,227,4.0,6.0,80,0.00,,---,0.07,0.00,VWS V14.01,2013-04-25 00:37:00,
2013-04-24 20:42:00,60.6,54.4,30.04,SSW,207,0.0,6.0,80,0.00,,---,0.07,0.00,VWS V14.01,2013-04-25 00:42:00,
2013-04-24 20:48:00,60.6,54.4,30.04,SW,228,1.0,9.0,80,0.00,,---,0.07,0.00,VWS V14.01,2013-04-25 00:48:00,
2013-04-24 20:53:00,60.7,54.2,30.04,SSE,157,3.0,10.0,79,0.00,,---,0.07,0.00,VWS V14.01,2013-04-25 00:53:00,
2013-04-24 20:58:00,60.8,54.3,30.04,SW,222,0.0,10.0,79,0.00,,---,0.07,0.00,VWS V14.01,2013-04-25 00:58:00,
2013-04-24 21:00:00,60.8,54.3,30.04,South,185,5.0,10.0,79,0.00,,---,0.07,0.00,VWS V14.01,2013-04-25 01:00:00,
2013-04-24 21:03:00,60.8,54.3,30.04,SSW,200,5.0,6.0,79,0.00,,---,0.07,0.00,VWS V14.01,2013-04-25 01:03:00,
2013-04-24 21:08:00,60.8,54.3,30.04,SW,233,1.0,6.0,79,0.00,,---,0.07,0.00,VWS V14.01,2013-04-25 01:08:00,
2013-04-24 21:13:00,60.9,54.3,30.04,SSW,211,1.0,7.0,79,0.00,,---,0.07,0.00,VWS V14.01,2013-04-25 01:13:00,
2013-04-24 21:18:00,60.8,54.3,30.04,South,179,0.0,7.0,79,0.00,,---,0.07,0.00,VWS V14.01,2013-04-25 01:18:00,
2013-04-24 21:23:00,60.8,54.3,30.04,NW,313,0.0,9.0,79,0.00,,---,0.07,0.00,VWS V14.01,2013-04-25 01:23:00,
2013-04-24 21:29:00,60.8,54.3,30.04,SSW,198,0.0,9.0,79,0.00,,---,0.07,0.00,VWS V14.01,2013-04-25 01:29:00,
2013-04-24 21:30:00,60.8,54.3,30.05,SW,220,2.0,9.0,79,0.00,,---,0.07,0.00,VWS V14.01,2013-04-25 01:30:00,
2013-04-24 21:34:00,60.8,54.3,30.05,SSW,213,0.0,4.0,79,0.00,,---,0.07,0.00,VWS V14.01,2013-04-25 01:34:00,
2013-04-24 21:39:00,60.7,53.8,30.05,SSE,165,10.0,10.0,78,0.00,,---,0.07,0.00,VWS V14.01,2013-04-25 01:39:00,
2013-04-24 21:44:00,60.7,54.2,30.05,SW,227,3.0,10.0,79,0.00,,---,0.07,0.00,VWS V14.01,2013-04-25 01:44:00,
2013-04-24 21:49:00,60.7,54.2,30.05,West,265,1.0,10.0,79,0.00,,---,0.07,0.00,VWS V14.01,2013-04-25 01:49:00,
2013-04-24 21:54:00,60.7,54.2,30.05,West,265,2.0,10.0,79,0.00,,---,0.07,0.00,VWS V14.01,2013-04-25 01:54:00,
2013-04-24 21:59:00,60.6,54.1,30.06,SW,215,3.0,10.0,79,0.00,,---,0.07,0.00,VWS V14.01,2013-04-25 01:59:00,
2013-04-24 22:00:00,60.6,54.4,30.06,SW,216,0.0,10.0,80,0.00,,---,0.07,0.00,VWS V14.01,2013-04-25 02:00:00,
2013-04-24 22:04:00,60.5,54.3,30.06,SW,215,0.0,4.0,80,0.00,,---,0.07,0.00,VWS V14.01,2013-04-25 02:04:00,
2013-04-24 22:09:00,60.5,55.0,30.07,WSW,244,0.0,6.0,82,0.00,,---,0.07,0.00,VWS V14.01,2013-04-25 02:09:00,
2013-04-24 22:15:00,60.2,55.0,30.08,NW,325,1.0,7.0,83,0.00,,---,0.07,0.00,VWS V14.01,2013-04-25 02:15:00,
2013-04-24 22:20:00,59.3,54.2,30.08,NW,305,3.0,7.0,83,0.02,,---,0.09,0.00,VWS V14.01,2013-04-25 02:20:00,
2013-04-24 22:25:00,58.1,53.3,30.09,NW,323,6.0,11.0,84,0.02,,---,0.09,0.00,VWS V14.01,2013-04-25 02:25:00,
2013-04-24 22:30:00,56.8,52.0,30.09,WNW,290,2.0,11.0,84,0.02,,---,0.09,0.00,VWS V14.01,2013-04-25 02:30:00,
2013-04-24 22:35:00,55.7,51.6,30.10,WNW,294,6.0,7.0,86,0.02,,---,0.09,0.00,VWS V14.01,2013-04-25 02:35:00,
2013-04-24 22:40:00,54.7,50.9,30.11,WNW,289,5.0,9.0,87,0.03,,---,0.10,0.00,VWS V14.01,2013-04-25 02:40:00,
2013-04-24 22:45:00,53.8,50.0,30.11,WNW,294,2.0,9.0,87,0.03,,---,0.10,0.00,VWS V14.01,2013-04-25 02:45:00,
2013-04-24 22:50:00,53.1,49.3,30.10,NW,323,2.0,11.0,87,0.03,,---,0.10,0.00,VWS V14.01,2013-04-25 02:50:00,
2013-04-24 22:56:00,52.5,49.0,30.11,West,261,5.0,11.0,88,0.04,,---,0.11,0.00,VWS V14.01,2013-04-25 02:56:00,
2013-04-24 23:00:00,51.9,48.5,30.11,West,266,2.0,11.0,88,0.04,,---,0.11,0.00,VWS V14.01,2013-04-25 03:00:00,
2013-04-24 23:01:00,52.1,48.7,30.12,WNW,297,0.0,11.0,88,0.04,,---,0.11,0.00,VWS V14.01,2013-04-25 03:01:00,
2013-04-24 23:06:00,51.7,48.3,30.11,NW,304,0.0,3.0,88,0.04,,---,0.11,0.00,VWS V14.01,2013-04-25 03:06:00,
2013-04-24 23:11:00,51.2,48.1,30.12,WNW,301,0.0,9.0,89,0.04,,---,0.11,0.00,VWS V14.01,2013-04-25 03:11:00,
2013-04-24 23:16:00,50.8,47.7,30.12,NW,305,0.0,9.0,89,0.04,,---,0.11,0.00,VWS V14.01,2013-04-25 03:16:00,
2013-04-24 23:21:00,50.5,47.4,30.12,West,266,0.0,9.0,89,0.04,,---,0.11,0.00,VWS V14.01,2013-04-25 03:21:00,
2013-04-24 23:26:00,50.0,46.9,30.12,WNW,290,2.0,9.0,89,0.04,,---,0.11,0.00,VWS V14.01,2013-04-25 03:26:00,
2013-04-24 23:30:00,49.7,46.6,30.13,WNW,298,2.0,9.0,89,0.04,,---,0.11,0.00,VWS V14.01,2013-04-25 03:30:00,
2013-04-24 23:31:00,49.8,46.7,30.13,West,263,3.0,9.0,89,0.04,,---,0.11,0.00,VWS V14.01,2013-04-25 03:31:00,
2013-04-24 23:36:00,49.6,46.8,30.13,WNW,291,5.0,7.0,90,0.02,,---,0.11,0.00,VWS V14.01,2013-04-25 03:36:00,
2013-04-24 23:42:00,49.4,46.6,30.13,WNW,303,0.0,7.0,90,0.02,,---,0.11,0.00,VWS V14.01,2013-04-25 03:42:00,
2013-04-24 23:47:00,49.2,46.4,30.13,NW,304,0.0,7.0,90,0.02,,---,0.11,0.00,VWS V14.01,2013-04-25 03:47:00,
2013-04-24 23:52:00,49.1,46.3,30.14,WNW,283,5.0,7.0,90,0.02,,---,0.11,0.00,VWS V14.01,2013-04-25 03:52:00,
2013-04-24 23:57:00,48.8,45.7,30.14,West,271,4.0,11.0,89,0.02,,---,0.11,0.00,VWS V14.01,2013-04-25 03:57:00,